New York Downtown Manhattan/w, NY

2:26 PM EDT on July 17, 2019 (GMT -0400)
New York Downtown Manhattan/w

Weather History for KJRB - May, 2019

Change the Weather History Date:

Friday, May 17, 2019

  Actual Average (KEWR) Record (KEWR)
Temperature  
Mean Temperature 67 °F -  
Max Temperature 77 °F 73 °F 94 °F (1974)
Min Temperature 59 °F 54 °F 39 °F (1956)
Cooling Degree Days 2    
Growing Degree Days 17 (Base 50)    
Moisture  
Dew Point 55 °F    
Average Humidity 64    
Maximum Humidity 87    
Minimum Humidity 50    
Precipitation  
Precipitation 0.16 in - - ()
Sea Level Pressure  
Sea Level Pressure 29.80 in    
Wind  
Wind Speed 4 mph ()    
Max Wind Speed 13 mph    
Max Gust Speed 58 mph    
Visibility 9.8 miles    
Events Rain    
Averages and records for this station are not official NWS values.
T = Trace of Precipitation, MM = Missing Value Source: Averaged Metar Reports

Daily Weather History Graph

Daily Weather History Graph

Search for Another Location

Airport or City:

Astronomy

May. 17, 2019 Rise Set
Actual Time 5:37 AM EDT 8:08 PM EDT
Civil Twilight 5:06 AM EDT 8:39 PM EDT
Nautical Twilight 4:27 AM EDT 9:18 PM EDT
Astronomical Twilight 3:43 AM EDT 10:02 PM EDT
Moon 6:52 PM EDT 5:08 AM EDT
Length of Visible Light 15h 33m
Length of Day
14h 30m
Waxing Gibbous, 98% of the Moon is Illuminated
May 17
Waxing Gibbous
May 18
Full
May 26
Last Quarter
Jun 3
New
Jun 10
First Quarter

Hourly Weather History & Observations

Time (EDT) Temp. Dew Point Humidity Pressure Visibility Wind Dir Wind Speed Gust Speed Precip Events Conditions
12:56 AM 64.0 °F 46.9 °F 54% 29.88 in 10.0 mi Calm Calm - N/A   Overcast
1:56 AM 63.0 °F 46.0 °F 54% 29.86 in 10.0 mi Calm Calm - N/A   Scattered Clouds
2:56 AM 63.0 °F 48.0 °F 58% 29.85 in 10.0 mi West 3.5 mph - N/A   Clear
3:56 AM 61.0 °F 48.9 °F 64% 29.83 in 10.0 mi West 3.5 mph - N/A   Clear
4:56 AM 60.1 °F 51.1 °F 72% 29.83 in 10.0 mi SW 5.8 mph - N/A   Clear
5:56 AM 59.0 °F 53.1 °F 81% 29.83 in 10.0 mi SSW 5.8 mph - N/A   Partly Cloudy
6:56 AM 61.0 °F 53.1 °F 75% 29.84 in 10.0 mi West 8.1 mph - 0.00 in   Clear
7:56 AM 62.1 °F 53.1 °F 72% 29.83 in 10.0 mi West 5.8 mph - N/A   Clear
8:40 AM 62.6 °F 53.6 °F 72% 29.81 in 10.0 mi West 5.8 mph 57.5 mph N/A   Squalls
8:56 AM 64.0 °F 54.0 °F 70% 29.82 in 10.0 mi West 8.1 mph - N/A   Clear
9:36 AM 66.2 °F 53.6 °F 64% 29.82 in 10.0 mi West 6.9 mph 54.1 mph 0.01 in   Squalls
9:56 AM 69.1 °F 55.0 °F 61% 29.81 in 10.0 mi SSW 8.1 mph - 0.01 in   Clear
10:56 AM 73.9 °F 55.0 °F 52% 29.79 in 10.0 mi Variable 5.8 mph - N/A   Clear
11:56 AM 75.9 °F 55.9 °F 50% 29.77 in 10.0 mi WSW 9.2 mph - N/A   Clear
12:56 PM 73.0 °F 55.0 °F 53% 29.77 in 10.0 mi West 10.4 mph 17.3 mph N/A   Overcast
1:56 PM 69.1 °F 57.9 °F 68% 29.76 in 10.0 mi SW 3.5 mph - 0.01 in   Overcast
2:56 PM 73.9 °F 57.0 °F 55% 29.74 in 9.0 mi Calm Calm - N/A   Scattered Clouds
3:56 PM 75.9 °F 57.0 °F 52% 29.72 in 10.0 mi SW 10.4 mph - 0.01 in   Scattered Clouds
4:56 PM 75.0 °F 57.0 °F 53% 29.72 in 10.0 mi West 9.2 mph - N/A   Mostly Cloudy
5:56 PM 73.9 °F 57.0 °F 55% 29.74 in 10.0 mi West 12.7 mph 18.4 mph N/A   Mostly Cloudy
6:56 PM 73.9 °F 57.0 °F 55% 29.73 in 10.0 mi West 8.1 mph - N/A   Clear
7:56 PM 73.0 °F 57.9 °F 59% 29.75 in 10.0 mi West 8.1 mph - N/A   Clear
8:56 PM 71.1 °F 57.9 °F 63% 29.77 in 10.0 mi West 8.1 mph - N/A   Mostly Cloudy
9:56 PM 68.0 °F 63.0 °F 84% 29.81 in 7.0 mi Calm Calm - 0.13 in Rain Light Rain
10:56 PM 66.9 °F 63.0 °F 87% 29.81 in 10.0 mi Calm Calm - 0.00 in   Mostly Cloudy
11:56 PM 66.9 °F 60.1 °F 79% 29.83 in 10.0 mi West 3.5 mph - N/A   Overcast